Location: Azul
(36.7830°S, 59.8500°W)
Time: 23:01:52
(UTC-03:00)

HuskySat-1 - Pass Details

Date: 27 October 2021
Orbit: 444 x 456 km, 51.6° (Epoch: 28 November)

Event Time Altitude Azimuth Distance (km) Brightness Sun altitude
Rises 22:38:14 0° 251° (WSW) 2,502 ? -32.0°
Reaches altitude 10° 22:41:52 10° 214° (SSW) 1,630 ? -32.5°
Maximum altitude 22:42:59 11° 196° (SSW) 1,564 ? -32.6°
Enters shadow 22:43:39 11° 185° (S) 1,588 ? -32.7°
